Waarnemingen

Advertentie
Mijn weer
Marseille/Marignane, Frankrijk (7650): temperatuur & dauwpunt: 17.01.2018 04:00:00 - 23.01.2018 04:00:00 (CET)Marseille/Marignane, Frankrijk (7650): temperatuur 5cm: 17.01.2018 04:00:00 - 23.01.2018 04:00:00 (CET)Marseille/Marignane, Frankrijk (7650): temperatuur -20cm & temperatuur -100cm: 17.01.2018 04:00:00 - 23.01.2018 04:00:00 (CET)Marseille/Marignane, Frankrijk (7650): windsnelheid & windstoten: 17.01.2018 04:00:00 - 23.01.2018 04:00:00 (CET)Marseille/Marignane, Frankrijk (7650): windrichting: 17.01.2018 04:00:00 - 23.01.2018 04:00:00 (CET)Marseille/Marignane, Frankrijk (7650): luchtdruk: 17.01.2018 04:00:00 - 23.01.2018 04:00:00 (CET)Marseille/Marignane, Frankrijk (7650): zicht: 17.01.2018 04:00:00 - 23.01.2018 04:00:00 (CET)Marseille/Marignane, Frankrijk (7650): Zonneschijnduur: 17.01.2018 04:00:00 - 23.01.2018 04:00:00 (CET)Marseille/Marignane, Frankrijk (7650): neerslag: 17.01.2018 04:00:00 - 23.01.2018 04:00:00 (CET)
Datum & Tijd tt [°C] td [°C] tt 5cm [°C] tt -20cm [°C] tt -100cm [°C] ff [km/u] ff [kn] fx [km/u] fx [kn] dd ppp [hPa] vv [km] sd [min] rr [mm]
23.01.2018 04:00:00 12,7 5,6 11,9 10,0 12,2 48 26 82 44 NW 1021,0 60 0 0,0
23.01.2018 03:00:00 12,9 6,5 11,6 10,1 12,2 49 27 67 36 NW 1021,0 60 0 0,0
23.01.2018 02:00:00 12,8 6,4 11,2 10,1 12,2 32 17 53 28 WNW 1020,8 60 0 0,0
23.01.2018 01:00:00 12,0 5,6 10,9 10,3 12,2 28 15 41 22 WNW 1019,6 60 0 0,0
23.01.2018 00:00:00 11,8 5,9 10,9 10,5 12,2 31 17 38 21 WNW 1019,0 60 0 0,0
22.01.2018 23:00:00 12,5 5,9 11,0 10,6 12,2 35 19 40 22 WNW 1018,4 60 0 0,0
22.01.2018 22:00:00 11,7 6,6 10,6 10,7 12,2 22 12 41 22 WNW 1018,6 60 0 0,0
22.01.2018 21:00:00 12,5 7,4 11,8 10,8 12,2 31 17 45 24 W 1018,6 60 0 0,0
22.01.2018 20:00:00 13,4 7,8 12,6 10,9 12,2 30 16 47 25 W 1019,2 60 0 0,0
22.01.2018 19:00:00 13,2 8,3 12,4 10,9 12,2 26 14 40 22 W 1018,8 60 0 0,0
22.01.2018 18:00:00 13,8 8,0 12,3 11,0 12,2 34 19 43 23 W 1018,1 60 0 0,0
22.01.2018 17:00:00 13,0 7,2 12,6 11,0 12,1 23 13 28 15 W 1018,1 60 0 0,0
22.01.2018 16:00:00 13,4 7,4 12,8 10,8 12,2 23 12 29 16 W 1018,3 60 0 0,0
22.01.2018 15:00:00 15,9 6,9 15,9 10,4 12,1 28 15 61 33 WNW 1018,1 60 8 0,0
22.01.2018 14:00:00 17,7 6,2 17,8 9,9 12,2 51 28 74 40 WNW 1017,9 36 48 0,0
22.01.2018 13:00:00 16,2 7,1 17,7 9,3 12,2 37 20 51 28 W 1018,2 39 60 0,0
22.01.2018 12:00:00 17,8 6,3 15,0 8,9 12,2 30 16 42 23 WNW 1019,1 50 51 0,0
22.01.2018 11:00:00 14,3 7,6 12,4 8,6 12,2 24 13 36 19 W 1019,5 36 19 0,0
22.01.2018 10:00:00 12,2 7,1 12,1 8,5 12,2 13 7 23 13 W 1019,1 53 32 0,0
22.01.2018 09:00:00 11,1 6,6 8,8 8,6 12,2 18 10 23 13 WNW 1018,4 59 6 0,0
22.01.2018 08:00:00 11,4 5,5 8,1 8,7 12,2 11 6 18 10 WNW 1018,2 60 0 0,0
22.01.2018 07:00:00 10,1 5,9 6,4 8,8 12,1 20 11 35 19 WNW 1017,9 60 0 0,0
22.01.2018 06:00:00 10,0 5,4 8,0 8,9 12,1 10 6 21 11 N 1018,0 60 0 0,0
22.01.2018 05:00:00 10,6 5,8 8,1 9,1 12,2 12 6 25 14 N 1018,3 60 0 0,0
22.01.2018 04:00:00 9,9 6,1 6,6 9,2 12,2 17 9 22 12 NW 1018,3 60 0 0,0
22.01.2018 03:00:00 10,1 6,1 7,2 9,4 12,2 18 10 31 17 NW 1018,1 55 0 0,0
22.01.2018 02:00:00 10,0 6,5 8,5 9,6 12,2 19 11 29 15 WNW 1018,3 60 0 0,0
22.01.2018 01:00:00 10,2 6,5 6,7 9,8 12,2 24 13 29 15 W 1018,2 60 0 0,0
22.01.2018 00:00:00 8,8 5,5 6,1 10,0 12,2 3 2 15 8 ZZO 1017,9 60 0 0,0
21.01.2018 23:00:00 9,5 5,9 8,5 10,2 12,2 16 9 28 15 WNW 1018,0 60 0 0,0
21.01.2018 22:00:00 9,8 5,8 9,2 10,4 12,2 24 13 31 17 WNW 1017,5 60 0 0,0
21.01.2018 21:00:00 10,0 6,0 9,2 10,6 12,2 24 13 31 17 W 1017,4 60 0 0,0
21.01.2018 20:00:00 11,8 5,4 11,1 10,8 12,2 24 13 43 23 WNW 1016,8 60 0 0,0
21.01.2018 19:00:00 12,5 5,2 11,9 10,9 12,2 32 17 46 25 NW 1016,2 60 0 0,0
21.01.2018 18:00:00 13,0 4,2 12,4 11,0 12,2 33 18 43 23 NW 1016,0 60 10 0,0
21.01.2018 17:00:00 14,0 3,7 14,4 10,9 12,2 29 16 61 33 WNW 1015,8 41 60 0,0
21.01.2018 16:00:00 15,1 3,6 16,6 10,7 12,2 29 16 64 34 NW 1015,5 26 60 0,0
21.01.2018 15:00:00 14,9 3,4 17,0 10,3 12,2 39 21 67 36 NW 1015,1 21 60 0,0
21.01.2018 14:00:00 15,0 2,5 17,0 9,9 12,2 48 26 72 39 NW 1014,7 19 60 0,0
21.01.2018 13:00:00 15,0 2,2 16,6 9,5 12,2 48 26 83 45 NW 1015,0 20 60 0,0
21.01.2018 12:00:00 14,9 2,1 16,2 9,1 12,2 56 30 83 45 NW 1015,0 21 60 0,0
21.01.2018 11:00:00 14,6 2,1 14,4 9,0 12,2 46 25 71 39 NW 1014,3 34 60 0,0
21.01.2018 10:00:00 13,7 3,5 12,1 9,0 12,2 39 21 62 33 NW 1013,6 49 44 0,0
21.01.2018 09:00:00 11,6 4,8 10,6 9,1 12,2 29 16 44 24 NW 1013,4 59 30 0,0
21.01.2018 08:00:00 11,7 4,9 10,2 9,2 12,2 30 16 51 28 NW 1013,0 60 0 0,0
21.01.2018 07:00:00 11,0 5,1 9,8 9,2 12,2 22 12 37 20 NW 1012,2 60 0 0,0
21.01.2018 06:00:00 12,0 6,3 11,1 9,2 12,2 21 12 36 19 NW 1011,8 52 0 0,0
21.01.2018 05:00:00 12,0 8,1 11,2 9,2 12,2 20 11 34 18 N 1011,7 60 0 0,0
21.01.2018 04:00:00 12,3 8,6 10,9 9,1 12,2 28 15 35 19 W 1011,0 60 0 0,0
21.01.2018 03:00:00 13,1 9,0 11,6 9,0 12,2 27 15 37 20 WNW 1011,0 59 0 0,0
21.01.2018 02:00:00 12,2 8,5 11,7 9,0 12,2 23 12 43 23 W 1010,8 45 0 0,0
21.01.2018 01:00:00 13,5 8,8 12,6 8,9 12,2 30 16 42 23 W 1010,6 44 0 0,0
21.01.2018 00:00:00 13,6 8,8 12,5 8,8 12,2 31 17 42 23 WZW 1010,9 42 0 0,0
20.01.2018 23:00:00 12,6 8,7 11,9 8,6 12,2 26 14 34 19 W 1011,3 34 0 0,0
20.01.2018 22:00:00 13,3 8,4 11,7 8,5 12,2 10 5 33 18 WNW 1011,6 51 0 0,0
20.01.2018 21:00:00 13,0 8,3 11,4 8,4 12,3 11 6 31 17 W 1011,9 45 0 0,0
20.01.2018 20:00:00 12,4 8,5 12,1 8,2 12,2 25 14 45 25 WZW 1012,1 20 0 0,0
20.01.2018 19:00:00 12,4 8,1 12,0 8,1 12,2 34 18 55 30 WZW 1012,1 31 0 0,0
20.01.2018 18:00:00 12,5 7,4 11,9 8,0 12,2 38 20 60 33 WZW 1012,5 33 0 0,0
20.01.2018 17:00:00 12,1 6,8 10,2 7,8 12,2 28 15 54 29 ZW 1013,0 42 0 0,0
20.01.2018 16:00:00 10,6 5,8 8,5 7,7 12,2 11 6 24 13 Z 1013,7 50 0 0,0
20.01.2018 15:00:00 9,8 3,7 8,4 7,5 12,2 6 4 10 5 ZZO 1014,5 20 0 0,0
20.01.2018 14:00:00 9,7 0,8 10,0 7,3 12,3 7 4 9 5 ZZO 1015,7 54 0 0,0
20.01.2018 13:00:00 9,5 0,1 9,8 7,0 12,2 0 0 4 2 N 1017,4 60 0 0,0
20.01.2018 12:00:00 9,2 0,1 10,4 6,6 12,3 2 1 9 5 W 1018,8 60 20 0,0
20.01.2018 11:00:00 8,7 1,4 10,0 6,5 12,3 2 1 9 5 W 1019,6 41 53 0,0
20.01.2018 10:00:00 7,0 1,5 7,0 6,5 12,3 3 2 16 9 NW 1020,0 50 41 0,0
20.01.2018 09:00:00 5,4 0,6 1,6 6,7 12,3 13 7 18 10 WNW 1019,8 20 30 0,0
20.01.2018 08:00:00 4,9 0,1 1,6 6,9 12,3 8 4 18 10 NW 1019,6 60 0 0,0
20.01.2018 07:00:00 5,1 0,1 3,8 7,1 12,3 13 7 24 13 WNW 1019,2 60 0 0,0
20.01.2018 06:00:00 6,4 0,5 4,9 7,3 12,3 20 11 28 15 NW 1018,9 60 0 0,0
20.01.2018 05:00:00 6,1 0,4 5,1 7,5 12,3 20 11 33 18 WNW 1018,9 60 0 0,0
20.01.2018 04:00:00 8,1 0,8 7,1 7,6 12,3 27 15 34 19 NW 1018,6 60 0 0,0
20.01.2018 03:00:00 8,4 1,3 7,0 7,8 12,3 24 13 30 16 NW 1018,9 60 0 0,0
20.01.2018 02:00:00 8,7 1,6 6,3 7,9 12,3 18 10 39 21 NW 1018,7 60 0 0,0
20.01.2018 01:00:00 8,6 2,8 6,5 8,0 12,3 18 10 24 13 NW 1018,6 60 0 0,0
20.01.2018 00:00:00 7,4 2,9 6,0 8,2 12,3 16 9 25 13 WNW 1019,0 60 0 0,0
19.01.2018 23:00:00 8,5 3,5 7,6 8,4 12,3 22 12 27 15 WNW 1018,9 60 0 0,0
19.01.2018 22:00:00 8,5 2,5 6,8 8,6 12,3 15 8 24 13 NNW 1018,6 42 0 0,0
19.01.2018 21:00:00 7,9 3,4 6,3 8,8 12,3 17 9 28 15 W 1018,2 53 0 0,0
19.01.2018 20:00:00 7,8 2,9 5,9 9,0 12,3 16 9 22 12 WNW 1017,5 57 0 0,0
19.01.2018 19:00:00 9,3 3,5 7,7 9,2 12,3 19 11 23 13 WNW 1016,7 60 0 0,0
19.01.2018 18:00:00 10,5 2,6 9,5 9,3 12,3 17 9 34 18 WNW 1016,0 60 9 0,0
19.01.2018 17:00:00 12,8 2,6 12,6 9,2 12,3 26 14 35 19 NW 1015,4 40 31 0,0
19.01.2018 16:00:00 13,8 3,0 13,8 8,8 12,3 21 12 43 23 NW 1015,1 60 37 0,0
19.01.2018 15:00:00 14,1 3,2 15,8 8,4 12,3 23 12 44 24 NNW 1014,7 29 58 0,0
19.01.2018 14:00:00 14,5 3,3 16,1 7,8 12,3 28 15 43 23 WNW 1014,7 30 60 0,0
19.01.2018 13:00:00 14,0 2,2 15,2 7,3 12,3 32 17 47 26 NW 1015,3 20 60 0,0
19.01.2018 12:00:00 12,6 4,5 13,5 6,8 12,3 24 13 35 19 NW 1015,7 37 60 0,0
19.01.2018 11:00:00 10,9 5,6 12,4 6,5 12,3 18 10 28 15 NW 1016,2 10 60 0,0
19.01.2018 10:00:00 9,7 6,2 8,3 6,4 12,3 8 4 43 23 NNW 1016,2 10 48 0,0
19.01.2018 09:00:00 8,0 6,0 3,6 6,4 12,3 11 6 18 10 N 1015,9 40 16 0,0
19.01.2018 08:00:00 7,3 5,1 1,8 6,6 12,3 4 2 10 5 - 1015,7 10 0 0,0
19.01.2018 07:00:00 6,1 4,3 1,7 6,8 12,3 0 0 10 5 N 1015,7 10 0 0,0
19.01.2018 06:00:00 6,6 4,8 1,7 7,0 12,3 8 4 12 6 NNW 1015,6 10 0 0,0
19.01.2018 05:00:00 5,5 4,0 2,0 7,2 12,3 5 3 10 6 O 1016,0 10 0 0,0
19.01.2018 04:00:00 4,5 2,0 2,1 7,5 12,3 8 4 11 6 OZO 1016,6 10 0 0,0
19.01.2018 03:00:00 4,3 2,3 2,3 7,7 12,3 4 2 8 4 Z 1017,1 10 0 0,0
19.01.2018 02:00:00 4,4 2,1 1,5 8,0 12,3 2 1 7 4 - 1017,1 10 0 0,0
19.01.2018 01:00:00 7,5 4,4 2,1 8,2 12,3 5 3 8 4 N 1017,2 10 0 0,0
19.01.2018 00:00:00 6,8 3,8 3,9 8,4 12,3 0 0 9 5 N 1017,9 10 0 0,0
18.01.2018 23:00:00 8,7 5,1 5,9 8,7 12,3 5 3 14 8 NNW 1017,9 10 0 0,0
18.01.2018 22:00:00 9,0 5,4 6,6 8,9 12,3 5 3 18 10 NW 1018,3 10 0 0,0
18.01.2018 21:00:00 9,7 6,0 8,1 9,0 12,3 15 8 26 14 WNW 1018,5 10 0 0,0
18.01.2018 20:00:00 9,9 5,7 9,0 9,2 12,3 22 12 29 16 W 1018,6 10 0 0,0
18.01.2018 19:00:00 10,7 6,3 9,1 9,3 12,3 13 7 22 12 WZW 1018,7 10 0 0,0
18.01.2018 18:00:00 11,1 6,2 10,1 9,3 12,3 21 11 33 18 W 1018,7 10 6 0,0
18.01.2018 17:00:00 11,8 6,3 11,6 9,1 12,3 21 12 34 18 WZW 1018,9 38 42 0,0
18.01.2018 16:00:00 12,7 5,6 14,4 8,8 12,3 19 11 26 14 W 1019,2 50 60 0,0
18.01.2018 15:00:00 12,8 5,2 12,9 8,3 12,3 21 11 25 13 W 1019,3 10 50 0,0
18.01.2018 14:00:00 12,9 4,6 14,5 7,7 12,3 16 8 26 14 W 1020,3 37 58 0,0
18.01.2018 13:00:00 12,8 4,7 14,0 7,1 12,3 21 12 30 16 W 1021,3 27 60 0,0
18.01.2018 12:00:00 12,3 5,0 14,3 6,6 12,3 23 13 30 16 W 1022,3 20 60 0,0
18.01.2018 11:00:00 10,9 3,2 11,6 6,2 12,3 4 2 8 4 - 1023,2 10 60 0,0
18.01.2018 10:00:00 8,4 2,0 7,9 6,2 12,2 6 4 18 10 N 1023,2 45 42 0,0
18.01.2018 09:00:00 5,8 1,3 0,9 6,4 12,3 5 3 14 8 O 1023,2 10 29 0,0
18.01.2018 08:00:00 2,7 -1,3 -0,4 6,7 12,3 8 4 13 7 OZO 1022,7 10 0 0,0
18.01.2018 07:00:00 1,7 -2,1 -0,2 7,0 12,3 5 3 15 8 ZO 1022,6 10 0 0,0
18.01.2018 06:00:00 2,6 -2,1 -0,9 7,3 12,3 15 8 16 9 ZO 1022,4 10 0 0,0
18.01.2018 05:00:00 2,1 -2,8 0,0 7,6 12,3 4 2 11 6 OZO 1022,8 42 0 0,0
18.01.2018 04:00:00 2,1 -3,6 -0,6 7,9 12,2 9 5 16 8 - 1023,5 10 0 0,0
18.01.2018 03:00:00 5,2 -2,9 0,4 8,2 12,2 7 4 25 13 N 1024,0 52 0 0,0
18.01.2018 02:00:00 6,3 -1,6 4,9 8,5 12,2 13 7 23 12 NW 1024,1 10 0 0,0
18.01.2018 01:00:00 6,4 -1,0 4,9 8,8 12,3 16 9 31 17 NW 1023,8 10 0 0,0
18.01.2018 00:00:00 6,6 0,1 5,8 9,0 12,2 24 13 35 19 WNW 1023,8 10 0 0,0
17.01.2018 23:00:00 6,9 -1,3 5,7 9,4 12,2 20 11 33 18 WNW 1023,5 60 0 0,0
17.01.2018 22:00:00 7,7 -0,8 6,5 9,7 12,2 22 12 33 18 WNW 1023,4 10 0 0,0
17.01.2018 21:00:00 9,1 -1,9 7,4 10,0 12,2 26 14 38 20 NW 1022,5 58 0 0,0
17.01.2018 20:00:00 9,1 -1,9 7,8 10,3 12,2 16 9 31 17 NW 1022,0 10 0 0,0
17.01.2018 19:00:00 9,7 -2,3 8,8 10,5 12,2 24 13 44 24 WNW 1020,7 10 0 0,0
17.01.2018 18:00:00 10,8 -3,3 10,0 10,7 12,3 31 17 53 29 NW 1020,0 10 6 0,0
17.01.2018 17:00:00 11,7 -2,9 12,1 10,8 12,2 41 22 69 37 NW 1019,1 10 60 0,0
17.01.2018 16:00:00 12,3 -2,0 12,8 10,7 12,2 39 21 80 43 NW 1018,1 10 57 0,0
17.01.2018 15:00:00 12,7 -2,0 14,4 10,4 12,2 54 29 86 47 NW 1017,2 13 60 0,0
17.01.2018 14:00:00 12,8 -1,5 14,1 10,1 12,2 50 27 68 37 NNW 1017,0 10 58 0,0
17.01.2018 13:00:00 12,5 -2,2 13,6 9,9 12,2 46 25 78 42 NW 1017,2 10 58 0,0
17.01.2018 12:00:00 13,1 -0,9 13,7 9,7 12,2 48 26 79 42 NW 1017,1 18 60 0,0
17.01.2018 11:00:00 12,4 -0,5 11,7 9,7 12,2 46 25 71 39 WNW 1016,8 20 60 0,0
17.01.2018 10:00:00 11,3 1,8 10,8 9,8 12,2 45 24 60 33 WNW 1015,5 44 39 0,0
17.01.2018 09:00:00 10,7 1,8 8,4 10,0 12,2 37 20 69 38 WNW 1014,3 48 18 0,0
17.01.2018 08:00:00 11,1 2,6 10,3 10,2 12,2 41 22 62 33 WNW 1013,6 10 0 0,0
17.01.2018 07:00:00 11,6 3,6 10,9 10,4 12,2 48 26 86 47 WNW 1011,8 10 0 0,0
17.01.2018 06:00:00 11,6 5,2 10,6 10,5 12,2 39 21 53 28 W 1011,3 10 0 0,0
17.01.2018 05:00:00 11,5 7,0 9,8 10,6 12,2 31 17 44 24 W 1010,9 10 0 0,0
17.01.2018 04:00:00 11,6 8,6 10,3 10,7 12,2 22 12 36 19 NW 1010,8 10 0 0,0

tt = temperatuur
td = dauwpunt
tt 5cm = temperatuur 5cm
tt -20cm = temperatuur -20cm
tt -100cm = temperatuur -100cm
ff = windsnelheid
fx = windstoten
dd = windrichting
ppp = luchtdruk
vv = zicht
sd = Zonneschijnduur
rr = neerslag

Weerstations in de omgeving